FW4213 Weather Reports


time (UTC)temp
C
wind
direction
speed
KPH
gust
KPH
rain 1hr
cm
rain 24hr
cm
rain mn
cm
humidity
%
barometer
mb
20260505194531 22 274 4.8 20.9 0.00 0.00 0.00 54 1015.2
20260505193035 22 261 4.8 17.7 0.00 0.00 0.00 54 1015.3
20260505190034 21 258 4.8 11.3 0.00 0.00 0.00 56 1015.4
20260505184609 21 265 3.2 14.5 0.00 0.00 0.00 57 1015.5
20260505183030 21 261 4.8 17.7 0.00 0.00 0.00 56 1015.6
20260505181536 20 256 4.8 14.5 0.00 0.00 0.00 58 1015.6
20260505180030 20 248 4.8 17.7 0.00 0.00 0.00 59 1015.6
20260505173035 19 241 6.4 19.3 0.00 0.00 0.00 60 1015.6
20260505170029 18 238 6.4 17.7 0.00 0.00 0.00 62 1015.6
20260505163031 17 236 6.4 19.3 0.00 0.00 0.00 65 1015.6
20260505161609 17 234 6.4 20.9 0.00 0.00 0.00 66 1015.6
20260505153143 16 236 4.8 14.5 0.00 0.00 0.00 70 1015.3
20260505124530 13 235 6.4 16.1 0.00 0.00 0.00 79 1014.1
20260505123137 13 236 3.2 16.1 0.00 0.00 0.00 79 1013.9
20260505121535 13 238 4.8 11.3 0.00 0.00 0.00 79 1013.8
20260505120032 13 242 1.6 11.3 0.00 0.00 0.00 78 1013.7
20260505114532 14 254 3.2 11.3 0.00 0.00 0.00 77 1013.7
20260505113142 14 267 4.8 22.5 0.00 0.00 0.00 77 1013.6
20260505111537 14 261 3.2 14.5 0.00 0.00 0.00 77 1013.6
20260505101536 15 254 3.2 14.5 0.00 0.00 0.00 76 1013.2
20260505100033 15 243 4.8 17.7 0.00 0.00 0.00 76 1013.1
20260505094531 15 258 3.2 14.5 0.00 0.00 0.00 76 1013.0
20260505093144 15 249 1.6 11.3 0.00 0.00 0.00 75 1013.0
20260505091536 16 241 4.8 16.1 0.00 0.00 0.00 74 1012.8
20260505090036 16 248 4.8 14.5 0.00 0.00 0.00 74 1012.6
20260505083230 -17 0 0.0 0.0 0.00 0.00 0.00 100
20260505080036 17 252 1.6 9.7 0.00 0.00 0.00 73 1012.3
20260505074533 17 262 1.6 8.0 0.00 0.00 0.00 72 1012.2
20260505073031 17 252 1.6 11.3 0.00 0.00 0.00 72 1012.1
20260505071533 17 246 3.2 11.3 0.00 0.00 0.00 71 1011.9
20260505070036 17 298 1.6 9.7 0.00 0.00 0.00 69 1011.8
20260505064533 17 258 1.6 9.7 0.00 0.00 0.00 69 1011.6
20260505063030 17 251 0.0 6.4 0.00 0.00 0.00 69 1011.5
20260505061533 17 255 1.6 11.3 0.00 0.00 0.00 68 1011.5
20260505060035 17 245 1.6 8.0 0.00 0.00 0.00 67 1011.5
20260505054641 17 245 0.0 6.4 0.00 0.00 0.00 67 1011.6
20260505053037 17 236 1.6 8.0 0.00 0.00 0.00 67 1011.5
20260505051538 17 240 0.0 6.4 0.00 0.00 0.00 67 1011.4
20260505041642 18 264 1.6 11.3 0.00 0.00 0.00 62 1010.7
20260505040049 18 283 1.6 8.0 0.00 0.00 0.00 62 1010.6
20260505034534 19 276 1.6 11.3 0.00 0.00 0.00 61 1010.4
20260505033030 19 289 0.0 4.8 0.00 0.00 0.00 60 1010.2
20260505031535 20 294 0.0 4.8 0.00 0.00 0.00 58 1010.0
20260505024531 21 267 1.6 9.7 0.00 0.00 0.00 57 1009.5
20260505023032 21 250 1.6 6.4 0.00 0.00 0.00 56 1009.5
20260505021536 22 256 3.2 12.9 0.00 0.00 0.00 53 1009.4
20260505020036 23 252 3.2 14.5 0.00 0.00 0.00 52 1009.3
20260505014648 23 271 3.2 14.5 0.00 0.00 0.00 51 1009.3
20260505013140 23 264 3.2 11.3 0.00 0.00 0.00 50 1009.2
20260505011531 25 250 4.8 12.9 0.00 0.00 0.00 48 1009.1
20260505004529 25 273 4.8 14.5 0.00 0.00 0.00 48 1009.2
20260505003141 25 285 3.2 11.3 0.00 0.00 0.00 47 1009.2
20260505000034 26 284 4.8 17.7 0.00 0.00 0.00 45 1009.2
20260504233142 26 248 4.8 11.3 0.00 0.00 0.00 45 1009.3
20260504230036 27 262 3.2 11.3 0.00 0.00 0.00 45 1009.5
20260504223031 26 259 4.8 17.7 0.00 0.00 0.00 45 1009.8
20260504221536 26 265 4.8 12.9 0.00 0.00 0.00 46 1009.8
20260504220034 26 274 4.8 12.9 0.00 0.00 0.00 47 1010.0
20260504214531 25 259 3.2 12.9 0.00 0.00 0.00 48 1010.2
20260504213111 25 298 4.8 14.5 0.00 0.00 0.00 47 1010.4
20260504210036 25 291 3.2 12.9 0.00 0.00 0.00 48 1010.8
20260504204531 24 287 3.2 12.9 0.00 0.00 0.00 49 1011.0
20260504203037 24 301 4.8 14.5 0.00 0.00 0.00 49 1011.1
20260504200032 23 294 3.2 12.9 0.00 0.00 0.00 50 1011.2